Wetterdaten: Freitag, 03.12.2010
Datum Zeit Temp. A. Feuchte A. Luftdruck Regen Wind Richtung Richtung Sonnenschein UV Solar Windben
03.12.2010 00:00 -8,0 C 83 % 1009,6 hPa 0,0 mm 0,0 km/h (0 Bft) - - 0 0 min 0 UV-I 0 W/m 0,0 km/h (0 Bft)
03.12.2010 00:10 -8,0 C 83 % 1009,5 hPa 0,0 mm 0,0 km/h (0 Bft) - - 0 0 min 0 UV-I 0 W/m 0,0 km/h (0 Bft)
03.12.2010 00:20 -7,9 C 83 % 1009,6 hPa 0,0 mm 0,0 km/h (0 Bft) - - 0 0 min 0 UV-I 0 W/m 0,0 km/h (0 Bft)
03.12.2010 00:30 -7,9 C 83 % 1009,7 hPa 0,0 mm 0,0 km/h (0 Bft) - - 0 0 min 0 UV-I 0 W/m 0,0 km/h (0 Bft)
03.12.2010 00:40 -7,9 C 83 % 1009,7 hPa 0,0 mm 0,0 km/h (0 Bft) - - 0 0 min 0 UV-I 0 W/m 0,0 km/h (0 Bft)
03.12.2010 00:50 -7,9 C 84 % 1009,8 hPa 0,0 mm 0,0 km/h (0 Bft) - - 0 0 min 0 UV-I 0 W/m 0,0 km/h (0 Bft)
03.12.2010 01:00 -7,8 C 84 % 1009,8 hPa 0,0 mm 0,0 km/h (0 Bft) SW 225 0 min 0 UV-I 0 W/m 1,6 km/h (1 Bft)
03.12.2010 01:10 -7,8 C 84 % 1010,0 hPa 0,0 mm 0,0 km/h (0 Bft) - - 0 0 min 0 UV-I 0 W/m 1,6 km/h (1 Bft)
03.12.2010 01:20 -7,8 C 84 % 1010,0 hPa 0,0 mm 0,0 km/h (0 Bft) SW 225 0 min 0 UV-I 0 W/m 1,6 km/h (1 Bft)
03.12.2010 01:30 -7,7 C 84 % 1009,9 hPa 0,0 mm 0,0 km/h (0 Bft) - - 0 0 min 0 UV-I 0 W/m 0,0 km/h (0 Bft)
03.12.2010 01:40 -7,7 C 84 % 1009,8 hPa 0,0 mm 0,0 km/h (0 Bft) - - 0 0 min 0 UV-I 0 W/m 0,0 km/h (0 Bft)
03.12.2010 01:50 -7,7 C 84 % 1009,8 hPa 0,0 mm 0,0 km/h (0 Bft) - - 0 0 min 0 UV-I 0 W/m 0,0 km/h (0 Bft)
03.12.2010 02:00 -7,7 C 84 % 1009,8 hPa 0,0 mm 0,0 km/h (0 Bft) - - 0 0 min 0 UV-I 0 W/m 0,0 km/h (0 Bft)
03.12.2010 02:10 -7,7 C 84 % 1009,8 hPa 0,0 mm 0,0 km/h (0 Bft) - - 0 0 min 0 UV-I 0 W/m 0,0 km/h (0 Bft)
03.12.2010 02:20 -7,7 C 84 % 1009,7 hPa 0,0 mm 0,0 km/h (0 Bft) - - 0 0 min 0 UV-I 0 W/m 0,0 km/h (0 Bft)
03.12.2010 02:30 -7,7 C 84 % 1009,8 hPa 0,0 mm 0,0 km/h (0 Bft) - - 0 0 min 0 UV-I 0 W/m 0,0 km/h (0 Bft)
03.12.2010 02:40 -7,8 C 84 % 1009,7 hPa 0,0 mm 0,0 km/h (0 Bft) - - 0 0 min 0 UV-I 0 W/m 0,0 km/h (0 Bft)
03.12.2010 02:50 -7,8 C 84 % 1009,7 hPa 0,0 mm 0,0 km/h (0 Bft) - - 0 0 min 0 UV-I 0 W/m 0,0 km/h (0 Bft)
03.12.2010 03:00 -7,8 C 84 % 1009,7 hPa 0,0 mm 0,0 km/h (0 Bft) - - 0 0 min 0 UV-I 0 W/m 0,0 km/h (0 Bft)
03.12.2010 03:10 -7,8 C 84 % 1009,8 hPa 0,0 mm 0,0 km/h (0 Bft) - - 0 0 min 0 UV-I 0 W/m 0,0 km/h (0 Bft)
03.12.2010 03:20 -7,9 C 84 % 1009,7 hPa 0,0 mm 0,0 km/h (0 Bft) - - 0 0 min 0 UV-I 0 W/m 0,0 km/h (0 Bft)
03.12.2010 03:30 -7,9 C 84 % 1009,6 hPa 0,0 mm 0,0 km/h (0 Bft) - - 0 0 min 0 UV-I 0 W/m 0,0 km/h (0 Bft)
03.12.2010 03:40 -7,9 C 84 % 1009,5 hPa 0,0 mm 0,0 km/h (0 Bft) - - 0 0 min 0 UV-I 0 W/m 0,0 km/h (0 Bft)
03.12.2010 03:50 -7,9 C 84 % 1009,5 hPa 0,0 mm 0,0 km/h (0 Bft) SW 225 0 min 0 UV-I 0 W/m 1,6 km/h (1 Bft)
03.12.2010 04:00 -8,0 C 84 % 1009,4 hPa 0,0 mm 0,0 km/h (0 Bft) SW 225 0 min 0 UV-I 0 W/m 1,6 km/h (1 Bft)
03.12.2010 04:10 -8,1 C 84 % 1009,5 hPa 0,0 mm 0,0 km/h (0 Bft) - - 0 0 min 0 UV-I 0 W/m 0,0 km/h (0 Bft)
03.12.2010 04:20 -8,1 C 84 % 1009,4 hPa 0,0 mm 0,0 km/h (0 Bft) SW 225 0 min 0 UV-I 0 W/m 1,6 km/h (1 Bft)
03.12.2010 04:30 -8,2 C 84 % 1009,4 hPa 0,0 mm 0,0 km/h (0 Bft) SW 225 0 min 0 UV-I 0 W/m 1,6 km/h (1 Bft)
03.12.2010 04:40 -8,2 C 84 % 1009,4 hPa 0,0 mm 0,0 km/h (0 Bft) SW 225 0 min 0 UV-I 0 W/m 1,6 km/h (1 Bft)
03.12.2010 04:50 -8,2 C 84 % 1009,4 hPa 0,0 mm 0,0 km/h (0 Bft) SW 225 0 min 0 UV-I 0 W/m 4,8 km/h (1 Bft)
03.12.2010 05:00 -8,2 C 84 % 1009,4 hPa 0,0 mm 0,0 km/h (0 Bft) SW 225 0 min 0 UV-I 0 W/m 1,6 km/h (1 Bft)
03.12.2010 05:10 -8,2 C 84 % 1009,4 hPa 0,0 mm 0,0 km/h (0 Bft) SW 225 0 min 0 UV-I 0 W/m 1,6 km/h (1 Bft)
03.12.2010 05:20 -8,3 C 84 % 1009,4 hPa 0,0 mm 0,0 km/h (0 Bft) SW 225 0 min 0 UV-I 0 W/m 1,6 km/h (1 Bft)
03.12.2010 05:30 -8,3 C 84 % 1009,4 hPa 0,0 mm 0,0 km/h (0 Bft) SW 225 0 min 0 UV-I 0 W/m 1,6 km/h (1 Bft)
03.12.2010 05:40 -8,3 C 84 % 1009,7 hPa 0,0 mm 0,0 km/h (0 Bft) SW 225 0 min 0 UV-I 0 W/m 1,6 km/h (1 Bft)
03.12.2010 05:50 -8,3 C 84 % 1009,7 hPa 0,0 mm 0,0 km/h (0 Bft) SW 225 0 min 0 UV-I 0 W/m 1,6 km/h (1 Bft)
03.12.2010 06:00 -8,4 C 84 % 1009,7 hPa 0,0 mm 0,0 km/h (0 Bft) SW 225 0 min 0 UV-I 0 W/m 1,6 km/h (1 Bft)
03.12.2010 06:10 -8,4 C 84 % 1009,8 hPa 0,0 mm 0,0 km/h (0 Bft) - - 0 0 min 0 UV-I 0 W/m 0,0 km/h (0 Bft)
03.12.2010 06:20 -8,4 C 84 % 1009,9 hPa 0,0 mm 0,0 km/h (0 Bft) SW 225 0 min 0 UV-I 0 W/m 1,6 km/h (1 Bft)
03.12.2010 06:30 -8,5 C 84 % 1009,8 hPa 0,0 mm 0,0 km/h (0 Bft) SW 225 0 min 0 UV-I 0 W/m 1,6 km/h (1 Bft)
03.12.2010 06:40 -8,5 C 84 % 1009,8 hPa 0,0 mm 0,0 km/h (0 Bft) SW 225 0 min 0 UV-I 0 W/m 1,6 km/h (1 Bft)
03.12.2010 06:50 -8,6 C 84 % 1009,9 hPa 0,0 mm 0,0 km/h (0 Bft) SW 225 0 min 0 UV-I 0 W/m 1,6 km/h (1 Bft)
03.12.2010 07:00 -8,6 C 85 % 1010,0 hPa 0,0 mm 0,0 km/h (0 Bft) - - 0 0 min 0 UV-I 0 W/m 0,0 km/h (0 Bft)
03.12.2010 07:10 -8,6 C 85 % 1010,0 hPa 0,0 mm 0,0 km/h (0 Bft) SW 225 0 min 0 UV-I 0 W/m 1,6 km/h (1 Bft)
03.12.2010 07:20 -8,6 C 85 % 1010,1 hPa 0,0 mm 0,0 km/h (0 Bft) SW 225 0 min 0 UV-I 0 W/m 1,6 km/h (1 Bft)
03.12.2010 07:30 -8,6 C 85 % 1010,0 hPa 0,0 mm 0,0 km/h (0 Bft) - - 0 0 min 0 UV-I 0 W/m 0,0 km/h (0 Bft)
03.12.2010 07:40 -8,6 C 85 % 1010,0 hPa 0,0 mm 0,0 km/h (0 Bft) - - 0 0 min 0 UV-I 0 W/m 0,0 km/h (0 Bft)
03.12.2010 07:50 -8,6 C 85 % 1010,1 hPa 0,0 mm 0,0 km/h (0 Bft) SW 225 0 min 0 UV-I 0 W/m 1,6 km/h (1 Bft)
03.12.2010 08:00 -8,5 C 85 % 1010,1 hPa 0,0 mm 0,0 km/h (0 Bft) SW 225 0 min 0 UV-I 0 W/m 1,6 km/h (1 Bft)
03.12.2010 08:10 -8,4 C 85 % 1010,1 hPa 0,0 mm 0,0 km/h (0 Bft) - - 0 0 min 0 UV-I 5 W/m 0,0 km/h (0 Bft)
03.12.2010 08:20 -8,4 C 85 % 1010,1 hPa 0,0 mm 0,0 km/h (0 Bft) SW 225 0 min 0 UV-I 11 W/m 1,6 km/h (1 Bft)
03.12.2010 08:30 -8,4 C 85 % 1010,1 hPa 0,0 mm 0,0 km/h (0 Bft) SW 225 10 min 0 UV-I 16 W/m 3,2 km/h (1 Bft)
03.12.2010 08:40 -8,3 C 85 % 1010,2 hPa 0,0 mm 0,0 km/h (0 Bft) SW 225 0 min 0 UV-I 21 W/m 1,6 km/h (1 Bft)
03.12.2010 08:50 -8,3 C 85 % 1010,2 hPa 0,0 mm 0,0 km/h (0 Bft) SW 225 0 min 0 UV-I 26 W/m 1,6 km/h (1 Bft)
03.12.2010 09:00 -8,2 C 85 % 1010,2 hPa 0,0 mm 0,0 km/h (0 Bft) SW 225 0 min 0 UV-I 30 W/m 1,6 km/h (1 Bft)
03.12.2010 09:10 -8,2 C 85 % 1010,3 hPa 0,0 mm 0,0 km/h (0 Bft) SW 225 0 min 0 UV-I 35 W/m 1,6 km/h (1 Bft)
03.12.2010 09:20 -8,1 C 85 % 1010,3 hPa 0,0 mm 0,0 km/h (0 Bft) SW 225 0 min 0 UV-I 40 W/m 1,6 km/h (1 Bft)
03.12.2010 09:30 -8,0 C 85 % 1010,4 hPa 0,0 mm 0,0 km/h (0 Bft) SW 225 0 min 0 UV-I 44 W/m 1,6 km/h (1 Bft)
03.12.2010 09:40 -7,9 C 86 % 1010,4 hPa 0,0 mm 0,0 km/h (0 Bft) SW 225 0 min 0 UV-I 47 W/m 1,6 km/h (1 Bft)
03.12.2010 09:50 -7,8 C 86 % 1010,4 hPa 0,0 mm 0,0 km/h (0 Bft) SW 225 0 min 0 UV-I 60 W/m 1,6 km/h (1 Bft)
03.12.2010 10:00 -7,7 C 86 % 1010,5 hPa 0,0 mm 0,0 km/h (0 Bft) - - 0 0 min 0 UV-I 67 W/m 0,0 km/h (0 Bft)
03.12.2010 10:10 -7,4 C 86 % 1010,6 hPa 0,0 mm 0,0 km/h (0 Bft) SW 225 0 min 0 UV-I 72 W/m 1,6 km/h (1 Bft)
03.12.2010 10:20 -7,3 C 86 % 1010,8 hPa 0,0 mm 0,0 km/h (0 Bft) SW 225 0 min 0 UV-I 81 W/m 1,6 km/h (1 Bft)
03.12.2010 10:30 -7,1 C 86 % 1010,8 hPa 0,0 mm 0,0 km/h (0 Bft) SW 225 0 min 0 UV-I 83 W/m 1,6 km/h (1 Bft)
03.12.2010 10:40 -6,8 C 86 % 1010,9 hPa 0,0 mm 0,0 km/h (0 Bft) SW 225 0 min 0 UV-I 62 W/m 1,6 km/h (1 Bft)
03.12.2010 10:50 -6,6 C 86 % 1010,8 hPa 0,0 mm 0,0 km/h (0 Bft) SW 225 0 min 0 UV-I 56 W/m 3,2 km/h (1 Bft)
03.12.2010 11:00 -6,4 C 86 % 1010,7 hPa 0,0 mm 0,0 km/h (0 Bft) SW 225 0 min 0 UV-I 56 W/m 1,6 km/h (1 Bft)
03.12.2010 11:10 -6,3 C 85 % 1010,7 hPa 0,0 mm 0,0 km/h (0 Bft) SW 225 0 min 0 UV-I 58 W/m 1,6 km/h (1 Bft)
03.12.2010 11:20 -6,1 C 85 % 1010,7 hPa 0,0 mm 0,0 km/h (0 Bft) SW 225 0 min 0 UV-I 62 W/m 3,2 km/h (1 Bft)
03.12.2010 11:30 -6,0 C 85 % 1010,7 hPa 0,0 mm 0,0 km/h (0 Bft) SW 225 0 min 0 UV-I 65 W/m 3,2 km/h (1 Bft)
03.12.2010 11:40 -5,8 C 85 % 1010,7 hPa 0,0 mm 0,0 km/h (0 Bft) SW 225 0 min 0 UV-I 63 W/m 1,6 km/h (1 Bft)
03.12.2010 11:50 -5,6 C 84 % 1010,6 hPa 0,0 mm 0,0 km/h (0 Bft) SW 225 0 min 0 UV-I 62 W/m 1,6 km/h (1 Bft)
03.12.2010 12:00 -5,3 C 84 % 1010,5 hPa 0,0 mm 0,0 km/h (0 Bft) SW 225 0 min 0 UV-I 72 W/m 1,6 km/h (1 Bft)
03.12.2010 12:10 -5,2 C 84 % 1010,6 hPa 0,0 mm 0,0 km/h (0 Bft) SW 225 0 min 0 UV-I 72 W/m 3,2 km/h (1 Bft)
03.12.2010 12:20 -5,1 C 83 % 1010,5 hPa 0,0 mm 0,0 km/h (0 Bft) SW 225 0 min 0 UV-I 83 W/m 3,2 km/h (1 Bft)
03.12.2010 12:30 -4,9 C 83 % 1010,4 hPa 0,0 mm 0,0 km/h (0 Bft) SW 225 0 min 0 UV-I 100 W/m 1,6 km/h (1 Bft)
03.12.2010 12:40 -4,7 C 82 % 1010,4 hPa 0,0 mm 0,0 km/h (0 Bft) SW 225 0 min 0 UV-I 113 W/m 3,2 km/h (1 Bft)
03.12.2010 12:50 -4,5 C 82 % 1010,4 hPa 0,0 mm 0,0 km/h (0 Bft) SW 225 0 min 0 UV-I 105 W/m 4,8 km/h (1 Bft)
03.12.2010 13:00 -4,3 C 81 % 1010,3 hPa 0,0 mm 0,0 km/h (0 Bft) SW 225 0 min 0 UV-I 93 W/m 4,8 km/h (1 Bft)
03.12.2010 13:10 -4,2 C 80 % 1010,3 hPa 0,0 mm 0,0 km/h (0 Bft) SW 225 0 min 0 UV-I 86 W/m 3,2 km/h (1 Bft)
03.12.2010 13:20 -4,1 C 80 % 1010,3 hPa 0,0 mm 0,0 km/h (0 Bft) SW 225 0 min 0 UV-I 79 W/m 3,2 km/h (1 Bft)
03.12.2010 13:30 -3,9 C 80 % 1010,3 hPa 0,0 mm 0,0 km/h (0 Bft) SW 225 0 min 0 UV-I 77 W/m 3,2 km/h (1 Bft)
03.12.2010 13:40 -3,8 C 79 % 1010,3 hPa 0,0 mm 0,0 km/h (0 Bft) SW 225 0 min 0 UV-I 76 W/m 3,2 km/h (1 Bft)
03.12.2010 13:50 -3,7 C 78 % 1010,2 hPa 0,0 mm 0,0 km/h (0 Bft) SW 225 0 min 0 UV-I 88 W/m 3,2 km/h (1 Bft)
03.12.2010 14:00 -3,7 C 78 % 1010,1 hPa 0,0 mm 0,0 km/h (0 Bft) SW 225 0 min 0 UV-I 88 W/m 1,6 km/h (1 Bft)
03.12.2010 14:10 -3,6 C 77 % 1010,2 hPa 0,0 mm 0,0 km/h (0 Bft) SW 225 0 min 0 UV-I 69 W/m 1,6 km/h (1 Bft)
03.12.2010 14:20 -3,6 C 77 % 1010,3 hPa 0,0 mm 0,0 km/h (0 Bft) SW 225 0 min 0 UV-I 65 W/m 3,2 km/h (1 Bft)
03.12.2010 14:30 -3,7 C 77 % 1010,4 hPa 0,0 mm 0,0 km/h (0 Bft) SW 225 0 min 0 UV-I 65 W/m 4,8 km/h (1 Bft)
03.12.2010 14:40 -3,7 C 77 % 1010,5 hPa 0,0 mm 0,0 km/h (0 Bft) SW 225 0 min 0 UV-I 63 W/m 1,6 km/h (1 Bft)
03.12.2010 14:50 -3,7 C 77 % 1010,5 hPa 0,0 mm 0,0 km/h (0 Bft) SW 225 0 min 0 UV-I 56 W/m 3,2 km/h (1 Bft)
03.12.2010 15:00 -3,7 C 78 % 1010,6 hPa 0,0 mm 0,0 km/h (0 Bft) SW 225 0 min 0 UV-I 58 W/m 3,2 km/h (1 Bft)
03.12.2010 15:10 -3,6 C 78 % 1010,5 hPa 0,0 mm 0,0 km/h (0 Bft) SW 225 0 min 0 UV-I 62 W/m 1,6 km/h (1 Bft)
03.12.2010 15:20 -3,6 C 78 % 1010,5 hPa 0,0 mm 0,0 km/h (0 Bft) - - 0 0 min 0 UV-I 54 W/m 0,0 km/h (0 Bft)
03.12.2010 15:30 -3,5 C 78 % 1010,7 hPa 0,0 mm 0,0 km/h (0 Bft) SW 225 0 min 0 UV-I 37 W/m 3,2 km/h (1 Bft)
03.12.2010 15:40 -3,6 C 77 % 1010,9 hPa 0,0 mm 0,0 km/h (0 Bft) SW 225 0 min 0 UV-I 23 W/m 1,6 km/h (1 Bft)
03.12.2010 15:50 -3,6 C 78 % 1010,9 hPa 0,0 mm 0,0 km/h (0 Bft) SW 225 0 min 0 UV-I 12 W/m 3,2 km/h (1 Bft)
03.12.2010 16:00 -3,7 C 78 % 1011,0 hPa 0,0 mm 0,0 km/h (0 Bft) SW 234 0 min 0 UV-I 5 W/m 0,0 km/h (0 Bft)
03.12.2010 16:10 -3,7 C 78 % 1011,0 hPa 0,0 mm 0,0 km/h (0 Bft) - - 0 0 min 0 UV-I 5 W/m 0,0 km/h (0 Bft)
03.12.2010 16:20 -3,8 C 78 % 1011,1 hPa 0,0 mm 0,0 km/h (0 Bft) SW 225 0 min 0 UV-I 0 W/m 1,6 km/h (1 Bft)
03.12.2010 16:30 -3,8 C 79 % 1011,1 hPa 0,0 mm 0,0 km/h (0 Bft) SW 225 0 min 0 UV-I 0 W/m 1,6 km/h (1 Bft)
03.12.2010 16:40 -3,9 C 79 % 1011,1 hPa 0,0 mm 0,0 km/h (0 Bft) - - 0 0 min 0 UV-I 0 W/m 0,0 km/h (0 Bft)
03.12.2010 16:50 -3,9 C 79 % 1011,1 hPa 0,0 mm 0,0 km/h (0 Bft) SW 225 0 min 0 UV-I 0 W/m 1,6 km/h (1 Bft)
03.12.2010 17:00 -4,0 C 79 % 1011,2 hPa 0,0 mm 0,0 km/h (0 Bft) - - 0 0 min 0 UV-I 0 W/m 0,0 km/h (0 Bft)
03.12.2010 17:10 -4,1 C 79 % 1011,1 hPa 0,0 mm 0,0 km/h (0 Bft) SW 225 0 min 0 UV-I 0 W/m 1,6 km/h (1 Bft)
03.12.2010 17:20 -4,2 C 79 % 1011,3 hPa 0,0 mm 0,0 km/h (0 Bft) - - 0 0 min 0 UV-I 0 W/m 0,0 km/h (0 Bft)
03.12.2010 17:30 -4,3 C 79 % 1011,4 hPa 0,0 mm 0,0 km/h (0 Bft) - - 0 0 min 0 UV-I 0 W/m 0,0 km/h (0 Bft)
03.12.2010 17:40 -4,3 C 79 % 1011,4 hPa 0,0 mm 0,0 km/h (0 Bft) - - 0 0 min 0 UV-I 0 W/m 0,0 km/h (0 Bft)
03.12.2010 17:50 -4,4 C 80 % 1011,6 hPa 0,0 mm 0,0 km/h (0 Bft) SW 225 0 min 0 UV-I 0 W/m 1,6 km/h (1 Bft)
03.12.2010 18:00 -4,4 C 80 % 1011,5 hPa 0,0 mm 0,0 km/h (0 Bft) SW 225 0 min 0 UV-I 0 W/m 1,6 km/h (1 Bft)
03.12.2010 18:10 -4,5 C 81 % 1011,8 hPa 0,0 mm 0,0 km/h (0 Bft) SW 225 0 min 0 UV-I 0 W/m 1,6 km/h (1 Bft)
03.12.2010 18:20 -4,6 C 81 % 1011,8 hPa 0,0 mm 0,0 km/h (0 Bft) - - 0 0 min 0 UV-I 0 W/m 0,0 km/h (0 Bft)
03.12.2010 18:30 -4,7 C 81 % 1011,8 hPa 0,0 mm 0,0 km/h (0 Bft) - - 0 0 min 0 UV-I 0 W/m 0,0 km/h (0 Bft)
03.12.2010 18:40 -4,7 C 81 % 1011,9 hPa 0,0 mm 0,0 km/h (0 Bft) - - 0 0 min 0 UV-I 0 W/m 0,0 km/h (0 Bft)
03.12.2010 18:50 -4,8 C 81 % 1012,0 hPa 0,0 mm 0,0 km/h (0 Bft) - - 0 0 min 0 UV-I 0 W/m 0,0 km/h (0 Bft)
03.12.2010 19:00 -4,9 C 81 % 1012,1 hPa 0,0 mm 0,0 km/h (0 Bft) - - 0 0 min 0 UV-I 0 W/m 0,0 km/h (0 Bft)
03.12.2010 19:10 -5,0 C 81 % 1012,2 hPa 0,0 mm 0,0 km/h (0 Bft) - - 0 0 min 0 UV-I 0 W/m 0,0 km/h (0 Bft)
03.12.2010 19:20 -5,1 C 82 % 1012,6 hPa 0,0 mm 0,0 km/h (0 Bft) - - 0 0 min 0 UV-I 0 W/m 0,0 km/h (0 Bft)
03.12.2010 19:30 -5,1 C 82 % 1012,7 hPa 0,0 mm 0,0 km/h (0 Bft) - - 0 0 min 0 UV-I 0 W/m 0,0 km/h (0 Bft)
03.12.2010 19:40 -5,2 C 82 % 1012,8 hPa 0,0 mm 0,0 km/h (0 Bft) - - 0 0 min 0 UV-I 0 W/m 0,0 km/h (0 Bft)
03.12.2010 19:50 -5,2 C 83 % 1012,8 hPa 0,0 mm 0,0 km/h (0 Bft) SW 225 0 min 0 UV-I 0 W/m 1,6 km/h (1 Bft)
03.12.2010 20:00 -5,1 C 83 % 1013,0 hPa 0,0 mm 0,0 km/h (0 Bft) - - 0 0 min 0 UV-I 0 W/m 0,0 km/h (0 Bft)
03.12.2010 20:10 -5,1 C 83 % 1013,1 hPa 0,0 mm 0,0 km/h (0 Bft) - - 0 0 min 0 UV-I 0 W/m 0,0 km/h (0 Bft)
03.12.2010 20:20 -5,1 C 83 % 1013,1 hPa 0,0 mm 0,0 km/h (0 Bft) - - 0 0 min 0 UV-I 0 W/m 0,0 km/h (0 Bft)
03.12.2010 20:30 -5,1 C 83 % 1013,1 hPa 0,0 mm 0,0 km/h (0 Bft) - - 0 0 min 0 UV-I 0 W/m 0,0 km/h (0 Bft)
03.12.2010 20:40 -5,1 C 83 % 1013,1 hPa 0,0 mm 0,0 km/h (0 Bft) - - 0 0 min 0 UV-I 0 W/m 0,0 km/h (0 Bft)
03.12.2010 20:50 -5,2 C 83 % 1013,2 hPa 0,0 mm 0,0 km/h (0 Bft) SW 225 0 min 0 UV-I 0 W/m 1,6 km/h (1 Bft)
03.12.2010 21:00 -5,3 C 83 % 1013,2 hPa 0,0 mm 0,0 km/h (0 Bft) SW 225 0 min 0 UV-I 0 W/m 3,2 km/h (1 Bft)
03.12.2010 21:10 -5,4 C 83 % 1013,2 hPa 0,0 mm 0,0 km/h (0 Bft) SW 225 0 min 0 UV-I 0 W/m 1,6 km/h (1 Bft)
03.12.2010 21:20 -5,5 C 84 % 1013,5 hPa 0,0 mm 0,0 km/h (0 Bft) - - 0 0 min 0 UV-I 0 W/m 0,0 km/h (0 Bft)
03.12.2010 21:30 -5,6 C 84 % 1013,5 hPa 0,0 mm 0,0 km/h (0 Bft) SW 225 0 min 0 UV-I 0 W/m 1,6 km/h (1 Bft)
03.12.2010 21:40 -5,7 C 84 % 1013,5 hPa 0,0 mm 0,0 km/h (0 Bft) SW 225 0 min 0 UV-I 0 W/m 1,6 km/h (1 Bft)
03.12.2010 21:50 -5,8 C 84 % 1013,4 hPa 0,0 mm 0,0 km/h (0 Bft) SW 225 0 min 0 UV-I 0 W/m 1,6 km/h (1 Bft)
03.12.2010 22:00 -5,9 C 84 % 1013,6 hPa 0,0 mm 0,0 km/h (0 Bft) SW 225 0 min 0 UV-I 0 W/m 1,6 km/h (1 Bft)
03.12.2010 22:10 -5,9 C 84 % 1013,7 hPa 0,0 mm 0,0 km/h (0 Bft) - - 0 0 min 0 UV-I 0 W/m 0,0 km/h (0 Bft)
03.12.2010 22:20 -6,1 C 84 % 1013,6 hPa 0,0 mm 0,0 km/h (0 Bft) SW 225 0 min 0 UV-I 0 W/m 1,6 km/h (1 Bft)
03.12.2010 22:30 -6,2 C 84 % 1013,7 hPa 0,0 mm 0,0 km/h (0 Bft) - - 0 0 min 0 UV-I 0 W/m 0,0 km/h (0 Bft)
03.12.2010 22:40 -6,4 C 84 % 1013,7 hPa 0,0 mm 0,0 km/h (0 Bft) SW 225 0 min 0 UV-I 0 W/m 1,6 km/h (1 Bft)
03.12.2010 22:50 -6,6 C 84 % 1013,8 hPa 0,0 mm 0,0 km/h (0 Bft) SW 225 0 min 0 UV-I 0 W/m 4,8 km/h (1 Bft)
03.12.2010 23:00 -6,8 C 84 % 1013,8 hPa 0,0 mm 0,0 km/h (0 Bft) SW 225 0 min 0 UV-I 0 W/m 1,6 km/h (1 Bft)
03.12.2010 23:10 -6,8 C 84 % 1013,9 hPa 0,0 mm 0,0 km/h (0 Bft) SW 225 0 min 0 UV-I 0 W/m 1,6 km/h (1 Bft)
03.12.2010 23:20 -7,0 C 84 % 1013,9 hPa 0,0 mm 0,0 km/h (0 Bft) SW 225 0 min 0 UV-I 0 W/m 3,2 km/h (1 Bft)
03.12.2010 23:30 -7,1 C 85 % 1014,0 hPa 0,0 mm 0,0 km/h (0 Bft) SW 225 0 min 0 UV-I 0 W/m 3,2 km/h (1 Bft)
03.12.2010 23:40 -7,1 C 85 % 1014,1 hPa 0,0 mm 0,0 km/h (0 Bft) SW 225 0 min 0 UV-I 0 W/m 3,2 km/h (1 Bft)
03.12.2010 23:50 -7,2 C 85 % 1014,2 hPa 0,0 mm 0,0 km/h (0 Bft) SW 225 0 min 0 UV-I 0 W/m 1,6 km/h (1 Bft)
_ Min-Zeit 06:50 14:10 04:00 - 00:00 - - - - - 00:00
Minimum _ -8,6 C 77 % 1009,4 hPa - 0,0 km/h (0 Bft) - - - - - 0,0 km/h (0 Bft)
_ Max-Zeit 15:20 09:40 23:50 00:00 00:00 - - 08:30 00:00 12:40 04:50
Maximum _ -3,5 C 86 % 1014,2 hPa 0,0 mm 0,0 km/h
- - (0 Bft)
- - 10 min 0 UV-I 113 W/m 4,8 km/h
SW (1 Bft)
Durchschnitt _ -6,3 C 83 % 1010,9 hPa #0,0 mm 0,0 km/h (0 Bft) - - - #10 min. 0 UV-I 58 W/m 1,4 km/h (1 Bft)